{"data":{"norad_id":49744,"epoch":"2026-05-25T01:39:45.258912Z","epoch_age_seconds":69036,"freshness":"FRESH","line1":"1 49744U 21115W   26145.06927383 -.00000771  00000+0 -30342-4 0  9996","line2":"2 49744  53.2129 166.1358 0001024  57.4828 302.6263 15.08836764247062","mean_motion":15.08836764,"eccentricity":0.0001024,"inclination_deg":53.2129,"raan_deg":166.1358,"arg_perigee_deg":57.4828,"mean_anomaly_deg":302.6263,"bstar":-3.0342e-5,"rev_number":24706,"period_min":95.43775936255,"perigee_km":539.04488817451,"apogee_km":540.46167210389,"semimajor_km":6917.8902801392,"source":"CELESTRAK","updated_at":"2026-05-25T13:38:16.835313Z"}}